Regional Weather Roundup
Issued by NWS

Home | Current Version | Previous Version | Text Only | Print | Product List | Glossary On
Versions: 1 2 3 4 5 6 7 8 9 10 11 12 13 14 15 16 17 18 19 20 21 22 23 24 25 26 27 28 29 30 31 32 33 34 35 36 37 38 39 40 41 42 43 44 45 46 47 48 49 50
000
ASUS43 KTOP 030708
RWRKS

WEATHER ROUNDUP FOR KANSAS
NATIONAL WEATHER SERVICE GOODLAND KS
200 AM CDT THU SEP 03 2015

NOTE:  "FAIR" INDICATES FEW OR NO CLOUDS BELOW 12,000 FEET WITH NO
SIGNIFICANT WEATHER AND/OR OBSTRUCTIONS TO VISIBILITY.

KSZ001>006-013>018-027>032-041>047-030800-
NORTHWEST KANSAS

CITY           SKY/WX    TMP DP  RH WIND       PRES   REMARKS
GOODLAND       PTCLDY    75  55  49 S14       29.90F
HAYS           PTCLDY    79  57  47 S10       29.88S
HILL CITY      PTCLDY    80  58  46 VRB5      29.85S
RUSSELL        PTCLDY    78  62  57 S14       29.87R
$$

KSZ061>065-074>080-084>089-030800-
SOUTHWEST KANSAS

CITY           SKY/WX    TMP DP  RH WIND       PRES   REMARKS
DODGE CITY     PTCLDY    72  57  59 S9        29.92F
ELKHART          N/A     72  54  53 S12         N/A
GARDEN CITY    CLEAR     72  58  61 S9        29.91F
GREAT BEND     PTCLDY    77  61  57 S16       29.89S
LIBERAL        PTCLDY    73  54  49 S10       29.94F
PRATT          MOCLDY    75  59  57 MISG      29.93S
$$

KSZ066>073-081>083-090>101-030800-
SOUTHEAST KANSAS

CITY           SKY/WX    TMP DP  RH WIND       PRES   REMARKS
CHANUTE        CLEAR     71  67  87 SE7       29.96F
COFFEYVILLE    CLEAR     72  68  87 S6        29.95F
HUTCHINSON     CLEAR     76  62  62 S10       29.92S
MEDICINE LODGE   N/A     77  61  57 S8        29.91S
NEWTON         CLEAR     73  61  64 S9        29.95F
PARSONS        CLEAR     72  68  87 CALM      29.97S
WICHITA INTL   PTCLDY    76  63  64 S12       29.92F
WICHITA JABRA  CLEAR     74  65  73 S12       29.93S
WICHITA MCCONL CLEAR     76  63  63 S13       29.93S
WINFIELD       CLEAR     75  64  68 S9        29.95S
$$

KSZ007>012-019>026-033>040-048>060-102>105-030800-
NORTHEAST KANSAS

CITY           SKY/WX    TMP DP  RH WIND       PRES   REMARKS
CONCORDIA      PTCLDY    77  64  64 S18       29.86F
EMPORIA        CLEAR     72  67  84 S14       29.93F
LAWRENCE       CLEAR     76  68  76 S8        29.93F
MANHATTAN      CLEAR     77  66  68 S9        29.89F
MARYSVILLE     CLEAR     75  68  78 S8        29.89S
OLATHE IND     CLEAR     73  69  87 S8        29.95F
OLATHE EXE     CLEAR     73  68  84 S6        29.95F
SALINA         CLEAR     80  63  55 S14       29.88S
TOPEKA BILLARD CLEAR     77  68  73 S8        29.92F
TOPEKA FORBES  CLEAR     75  69  81 S7        29.93F
$$


USA.gov is the U.S. government's official web portal to all federal, state and local government web resources and services.